AirNav   ProFlight Series 2 Aviation Headset
 
 939 users online  

PALH Lake Hood Airport
Anchorage, Alaska, USA

GOING TO ANCHORAGE?


FAA INFORMATION EFFECTIVE 18 JUNE 2020

Location

FAA Identifier: LHD
Lat/Long: 61-11-11.9011N 149-57-55.4171W
61-11.198352N 149-57.923618W
61.1866392,-149.9653936
(estimated)
Elevation: 79.3 ft. / 24.2 m (surveyed)
Variation: 25E (1985)
From city: 3 miles SW of ANCHORAGE, AK
Time zone: UTC -8 (UTC -9 during Standard Time)
Zip code: 99517

Airport Operations

Airport use: Open to the public
Activation date: 06/1947
Control tower: yes
ARTCC: ANCHORAGE CENTER
FSS: KENAI FLIGHT SERVICE STATION [907-283-7211]
NOTAMs facility: LHD (NOTAM-D service available)
Attendance: CONTINUOUS
Pattern altitude: 679.3 ft. MSL
Wind indicator: yes
Segmented circle: no
Lights: SS-SR

Airport Communications

CTAF: 126.8
ATIS: 125.6
WX ASOS: PHONE 907-245-5432
LAKE HOOD TOWER: 126.8
ANCHORAGE APPROACH: 119.1
ANCHORAGE DEPARTURE: 119.1
CLEARANCE DELIVERY: 119.4
CLASS C: 119.1
WX ASOS at ANC (1.2 nm SW): PHONE 907-271-5278
WX ASOS at MRI (4 nm NE): 124.25 (907-271-5277)
WX ASOS at FRN (10 nm NE): 134.25
WX AWOS-3P at BCV (19 nm NE): 135.55 (907-688-0826)
  • 907-245-5432

Nearby radio navigation aids

VOR radial/distance  VOR name  Freq  Var
TEDr334/1.1ANCHORAGE VOR/DME113.1518E
BGQr161/23.0BIG LAKE VORTAC112.5019E

 
NDB name  Hdg/Dist  Freq  Var  ID
CAMPBELL LAKE053/2.633816ECMQ -.-. -- --.-

Airport Services

Fuel available: 100 100LL JET-A
FUEL AVBL RY 14/32 TRANSIENT PARKING AND FM VARIOUS FIXED BASE OPERATORS.
Parking: hangars and tiedowns
Airframe service: MAJOR
Powerplant service: MAJOR
Bottled oxygen: NONE
Bulk oxygen: NONE

Runway Information

Runway 14/32

Dimensions: 2200 x 75 ft. / 671 x 23 m
Surface: gravel/dirt, in good condition
Weight bearing capacity: 
Single wheel: LIMITED TO ACFT 9000 LBS OR LESS.
Runway edge lights: medium intensity
RUNWAY 14  RUNWAY 32
Latitude: 61-11.359693N61-11.037010N
Longitude: 149-58.091452W149-57.755785W
Elevation: 74.6 ft.79.3 ft.
Traffic pattern: leftright
Runway heading: 128 magnetic, 153 true308 magnetic, 333 true
Touchdown point: yes, no lightsyes, no lights
Obstructions: 49 ft. tree, 950 ft. from runway, 18 ft. left of centerline, 19:1 slope to clear38 ft. tree, 633 ft. from runway, 109 ft. left of centerline, 16:1 slope to clear

Runway E/W

Dimensions: 4541 x 188 ft. / 1384 x 57 m
Surface: water
RUNWAY E  RUNWAY W
Traffic pattern: leftleft

Runway N/S

Dimensions: 1930 x 200 ft. / 588 x 61 m
Surface: water
RUNWAY N  RUNWAY S
Traffic pattern: leftleft

Runway SE/NW

Dimensions: 1369 x 150 ft. / 417 x 46 m
Surface: water
RUNWAY NW  RUNWAY SE
Traffic pattern: leftleft

Airport Ownership and Management from official FAA records

Ownership: Publicly-owned
Owner: STATE OF AK - DOT & PF
PO BOX 196960
ANCHORAGE, AK 99519-6960
Phone 907-266-2741
Manager: TIM COONS
STATE OF AK - DOT & PF, PO BOX 196960
ANCHORAGE, AK 99519-6960
Phone 907-266-2741

Airport Operational Statistics

Aircraft based on the field: 1032
Single engine airplanes: 999
Multi engine airplanes: 33
  • TOTAL: 1185.
    
Aircraft operations: avg 203/day *
60% transient general aviation
25% air taxi
15% local general aviation
<1% commercial
<1% military
* for 12-month period ending 31 December 2017

Additional Remarks

PUB RAMPS ON N & W SHORE OF LAKE HOOD.
ANCHORAGE WX CAMERA AVBL ON INTERNET AT HTTP://AVCAMS.FAA.GOV
NOISE SENSITIVE AREA IN EFFECT; CTC AMGR 907-266-2741 FOR FURTHER INFO.
TWY V PCL SECURITY GATE EAST OF TWY E; KEY 121.75 5 TIMES TO ACTVT.
FLOATING DEBRIS ON LAKE.
SEE NOTICE IN SECTION C FOR AIRPORT LAYOUT GRAPHIC.
TWY AROUND LAKE HOOD IS A JOINT USE TWY/ROAD & IS USED BY MOTOR VEHICLES/BICYCLISTS/JOGGERS AND TOUR BUSES. USE OF LANDING LIGHT WHEN TAXIING RCMDD.
TWY H-2/LAKESHORE TWY GATES PCL; KEY 121.75 3 TIMES TO ACTVT.
PPR FOR NON-RADIO OPNS. CTC FAA AT 907-271-5936. REQUEST TO BE TRANSFERRED TO ATCT. PROVIDE AN ETA AND REMAIN WITHIN PLUS/MINUS 15 MIN. NO NIGHTIME NON-RADIO ACFT OPNS.
RY 14/32 TFC PATTERNS OVERLAP SEADROME PATTERNS.
LAKE CLSD TO ACFT OVER 12500 LBS FM FREEZUP TIL APRXLY DEC 31; OVERFLOWS INTO ICE MAY OCCUR WINTER MONTHS.
AREA NW & SW OF LAKE SPENARD FM CANAL EASTWARD 1500' NOT VSBL FM ATCT.
NUMEROUS WATERFOWL AND NESTING AREAS INVOF ARPT.
FOR AVBLTY OF WINTER SKI OPNS ON LAKE SURFACES, CONSULT LOCAL NOTAMS AND CTC TWR PRIOR TO ARR /DEP.
NORTH POTHOLE DESIGNATED NO-WAKE AREA TO PROTECT MOORED AIRCRAFT/SHORELINE
ALL WATERLANES ELEV 76 FT TO LAKE HOOD SEAPLANE BASE (LHD).
ARRIVAL/DEPARTURE ROUTES; SEE AREA NOTICES.
LARGE FLOCKS OF MIGRATORY BIRDS INVOF ARPT SPRING TO FALL.

Instrument Procedures

There are no published instrument procedures at PALH.

Some nearby airports with instrument procedures:

PANC - Ted Stevens Anchorage International Airport (1 nm SW)
PAMR - Merrill Field Airport (4 nm NE)
PAED - Elmendorf Air Force Base (6 nm NE)
PAFR - Bryant Army Airfield Heliport (10 nm NE)
PAGQ - Big Lake Airport (21 nm N)
 
Loc | Ops | Rwys | IFR | FBO | Links
Com | Nav | Svcs | Stats | Notes

Crowley
 
Area around PALH (Lake Hood Airport)
 
Road maps at: MapQuest Bing Google
 
Aerial photo
WARNING: Photo may not be current or correct
Aerial photo of PALH (Lake Hood Airport)
Do you have a better or more recent aerial photo of Lake Hood Airport that you would like to share? If so, please send us your photo.

 
Sectional chart

 
Airport distance calculator
Flying to Lake Hood Airport? Find the distance to fly.

From to PALH

Sunrise and sunset
Times for 09-Jul-2020
 Local
(UTC-8)
 Zulu
(UTC)
Morning civil twilight02:5710:57
Sunrise04:4312:43
Sunset23:2707:27
Evening civil twilight01:1409:14

Current date and time
Zulu (UTC)  10-Jul-2020 01:44:30
Local (UTC-8)  09-Jul-2020 17:44:30
 
METAR
PALH 100053Z 20006KT 10SM CLR 19/12 A2971 RMK AO2 SLP062 T01890117
PANC 
2nm SW 
100053Z 18007KT 10SM FEW025 SCT045 SCT100 BKN250 18/11 A2970 RMK AO2 SLP059 CB DSNT NE T01830111
PAMR 
4nm NE 
100053Z VRB03KT 10SM CLR 21/10 A2970 RMK AO2 SLP057 T02060100
PAED 
6nm NE 
100056Z AUTO 15004KT 10SM CLR 20/12 A2970 RMK AO2 SLP053 T01980118 $
PAFR 
10nm NE 
100058Z AUTO 06003KT 9SM FEW028 BKN120 20/12 A2968 RMK AO2 LTG DSNT N-NE SLP056 T02040122 $
PABV 
19nm NE 
100056Z AUTO 02006KT 10SM CLR 19/12 A2972 RMK AO2 SLP068 T01940122
TAF
PANC 
2nm SW 
092113Z 0921/1024 VRB04KT P6SM SCT010 BKN040 TEMPO 0921/0923 BKN010 FM100000 29006KT P6SM VCSH BKN060 FM100800 15005KT P6SM FEW030 BKN070
PAED 
6nm NE 
092054Z 0920/1100 VRB06KT 9999 FEW008 BKN010 OVC020 QNH2970INS BECMG 0921/0922 VRB06KT 9999 SCT010 OVC020 QNH2967INS BECMG 1000/1001 VRB06KT 9999 FEW035 BKN080 QNH2966INS BECMG 1007/1008 VRB06KT 8000 -SHRA SCT015 OVC020 QNH2969INS BECMG 1013/1014 VRB06KT 8000 BR BKN020 OVC080 QNH2970INS BECMG 1021/1022 VRB06KT 8000 SHRA OVC020 QNH2969INS TX18/1002Z TN15/0920Z
NOTAMs
Click for the latest NOTAMs
NOTAMs are issued by the DoD/FAA and will open in a separate window not controlled by AirNav.

 

 
 

FBO, Fuel Providers, and Aircraft Ground Support

  
 Business Name 
 
 Contact 
 
 Services / Description 
 
Fuel Prices
 
Comments
  
 Crowley
907-222-3000
[web site]
Aviation fuel

More info about Crowley
independent
100LL
SS $5.45 
 Updated 30-Jun-2020
 
   write
International Aviation Service 907-243-1515
no information available

If you are affiliated with International Aviation Service and would like to show here your services, contact info, web link, logo, and more, click here
100LL Jet A
FS $5.37 $2.80 
 Updated 08-Jul-2020
 
   write
FS=Full service
SS=Self service
Update Fuel Prices
 

Would you like to see your business listed on this page?

 If your business provides an interesting product or service to pilots, flight crews, aircraft, or users of the Lake Hood Airport, you should consider listing it here.  To start the listing process, click on the button below
 
Add a business
 

Other Pages about Lake Hood Airport

www.alaska.faa.gov/...
www.dot.state.ak.us/...
 
Update a link
 
Copyright © AirNav, LLC. All rights reserved. Privacy Policy  Contact